Previsão horária em Barnasie

Hoje, 5 Agosto, Quinta-feira

Tempo Temperatura Precipitação Vento Pressão Humidade
00:00 +14°C° 0 mm 1 m/s 704 mmHg 94%
01:00 +14°C° 0 mm 1 m/s 704 mmHg 95%
02:00 +14°C° 0.2 mm 1 m/s 704 mmHg 95%
03:00 +14°C° 0.2 mm 1 m/s 703 mmHg 96%
04:00 +14°C° 0.2 mm 1 m/s 703 mmHg 96%
05:00 +15°C° 0.2 mm 1 m/s 703 mmHg 96%
06:00 +15°C° 0.2 mm 1 m/s 703 mmHg 95%
07:00 +15°C° 0.2 mm 1 m/s 702 mmHg 94%
08:00 +16°C° 0.1 mm 1 m/s 702 mmHg 93%
09:00 +16°C° 0.1 mm 1 m/s 702 mmHg 91%
10:00 +18°C° 0.1 mm 1 m/s 702 mmHg 90%
11:00 +18°C° 0.4 mm 1 m/s 701 mmHg 91%
12:00 +18°C° 0.4 mm 1 m/s 701 mmHg 92%
13:00 +18°C° 0.4 mm 1 m/s 701 mmHg 94%
14:00 +16°C° 2 mm 1 m/s 700 mmHg 95%
15:00 +16°C° 2 mm 1 m/s 700 mmHg 97%
16:00 +16°C° 2 mm 1 m/s 699 mmHg 99%
17:00 +15°C° 4.2 mm 1 m/s 699 mmHg 99%
18:00 +15°C° 4.2 mm 1 m/s 698 mmHg 99%
19:00 +15°C° 4.2 mm 1 m/s 698 mmHg 99%
20:00 +15°C° 1.5 mm 1 m/s 698 mmHg 99%
21:00 +15°C° 1.5 mm 1 m/s 698 mmHg 99%
22:00 +15°C° 1.5 mm 1 m/s 698 mmHg 99%
23:00 +15°C° 0.2 mm 1 m/s 698 mmHg 99%

Amanhã, 6 Agosto, Sexta-feira

Tempo Temperatura Precipitação Vento Pressão Humidade
00:00 +15°C° 0.2 mm 1 m/s 698 mmHg 98%
01:00 +15°C° 0.2 mm 1 m/s 698 mmHg 98%
02:00 +14°C° 0.3 mm 1 m/s 698 mmHg 98%
03:00 +14°C° 0.3 mm 2 m/s 698 mmHg 97%
04:00 +14°C° 0.3 mm 2 m/s 698 mmHg 96%
05:00 +13°C° 0.3 mm 2 m/s 698 mmHg 96%
06:00 +13°C° 0.3 mm 2 m/s 698 mmHg 96%
07:00 +12°C° 0.3 mm 3 m/s 699 mmHg 95%
08:00 +13°C° 0 mm 3 m/s 699 mmHg 93%
09:00 +13°C° 0 mm 3 m/s 699 mmHg 91%
10:00 +13°C° 0 mm 3 m/s 700 mmHg 89%
11:00 +13°C° 0.1 mm 3 m/s 700 mmHg 88%
12:00 +13°C° 0.1 mm 3 m/s 700 mmHg 87%
13:00 +13°C° 0.1 mm 3 m/s 701 mmHg 87%
14:00 +14°C° 0.1 mm 3 m/s 701 mmHg 82%
15:00 +16°C° 0.1 mm 3 m/s 701 mmHg 77%
16:00 +17°C° 0.1 mm 3 m/s 701 mmHg 73%
17:00 +16°C° 0 mm 2 m/s 701 mmHg 78%
18:00 +15°C° 0 mm 1 m/s 701 mmHg 84%
19:00 +14°C° 0 mm 1 m/s 701 mmHg 89%
20:00 +13°C° 0 mm 1 m/s 701 mmHg 90%
21:00 +13°C° 0 mm 1 m/s 702 mmHg 91%
22:00 +12°C° 0 mm 1 m/s 702 mmHg 92%
23:00 +12°C° 0 mm 2 m/s 702 mmHg 91%

Depois de amanhã, 7 Agosto, Sábado

Tempo Temperatura Precipitação Vento Pressão Humidade
00:00 +12°C° 0 mm 2 m/s 702 mmHg 91%
01:00 +12°C° 0 mm 2 m/s 702 mmHg 91%
02:00 +12°C° 0 mm 2 m/s 702 mmHg 91%
03:00 +12°C° 0 mm 2 m/s 702 mmHg 91%
04:00 +12°C° 0 mm 2 m/s 702 mmHg 91%
05:00 +13°C° 0 mm 2 m/s 703 mmHg 84%
06:00 +15°C° 0 mm 2 m/s 703 mmHg 78%
07:00 +18°C° 0 mm 1 m/s 703 mmHg 71%
08:00 +19°C° 0 mm 2 m/s 704 mmHg 64%
09:00 +21°C° 0 mm 2 m/s 704 mmHg 57%
10:00 +23°C° 0 mm 2 m/s 704 mmHg 49%
11:00 +24°C° 0 mm 2 m/s 704 mmHg 46%
12:00 +25°C° 0 mm 2 m/s 704 mmHg 43%
13:00 +26°C° 0 mm 2 m/s 704 mmHg 39%
14:00 +26°C° 0 mm 1 m/s 704 mmHg 41%
15:00 +26°C° 0 mm 1 m/s 704 mmHg 42%
16:00 +26°C° 0 mm 1 m/s 704 mmHg 43%
17:00 +24°C° 0 mm 1 m/s 704 mmHg 54%
18:00 +22°C° 0 mm 1 m/s 703 mmHg 65%
19:00 +20°C° 0 mm 1 m/s 703 mmHg 76%
20:00 +19°C° 0 mm 1 m/s 703 mmHg 77%
21:00 +17°C° 0 mm 2 m/s 703 mmHg 78%
22:00 +16°C° 0 mm 2 m/s 703 mmHg 80%
23:00 +16°C° 0 mm 2 m/s 703 mmHg 79%

8 Agosto, Domingo

Tempo Temperatura Precipitação Vento Pressão Humidade
00:00 +16°C° 0 mm 2 m/s 702 mmHg 78%
01:00 +15°C° 0 mm 2 m/s 702 mmHg 78%
02:00 +16°C° 0 mm 3 m/s 702 mmHg 75%
03:00 +16°C° 0 mm 3 m/s 702 mmHg 73%
04:00 +16°C° 0 mm 3 m/s 702 mmHg 71%
05:00 +17°C° 0 mm 3 m/s 702 mmHg 69%
06:00 +18°C° 0 mm 2 m/s 702 mmHg 66%
07:00 +20°C° 0 mm 2 m/s 703 mmHg 63%
08:00 +21°C° 0 mm 2 m/s 703 mmHg 59%
09:00 +24°C° 0 mm 3 m/s 704 mmHg 54%
10:00 +26°C° 0 mm 3 m/s 705 mmHg 50%
11:00 +26°C° 0 mm 3 m/s 705 mmHg 53%
12:00 +25°C° 0 mm 3 m/s 705 mmHg 56%
13:00 +25°C° 0 mm 3 m/s 705 mmHg 59%
14:00 +25°C° 0.2 mm 2 m/s 706 mmHg 63%
15:00 +24°C° 0.2 mm 2 m/s 706 mmHg 68%
16:00 +23°C° 0.2 mm 2 m/s 706 mmHg 72%
17:00 +21°C° 0.3 mm 2 m/s 706 mmHg 78%
18:00 +20°C° 0.3 mm 1 m/s 706 mmHg 84%
19:00 +19°C° 0.3 mm 1 m/s 706 mmHg 89%
20:00 +18°C° 0.4 mm 1 m/s 707 mmHg 91%
21:00 +18°C° 0.4 mm 1 m/s 707 mmHg 93%
22:00 +16°C° 0.4 mm 1 m/s 707 mmHg 95%
23:00 +16°C° 0.3 mm 1 m/s 707 mmHg 95%

9 Agosto, Segunda-feira

Tempo Temperatura Precipitação Vento Pressão Humidade
00:00 +15°C° 0.3 mm 1 m/s 708 mmHg 95%
01:00 +15°C° 0.3 mm 2 m/s 708 mmHg 96%
02:00 +15°C° 0.3 mm 2 m/s 708 mmHg 96%
03:00 +14°C° 0.3 mm 1 m/s 708 mmHg 96%
04:00 +13°C° 0.3 mm 1 m/s 708 mmHg 96%
05:00 +14°C° 0 mm 1 m/s 709 mmHg 93%
06:00 +14°C° 0 mm 1 m/s 709 mmHg 91%
07:00 +14°C° 0 mm 1 m/s 709 mmHg 88%
08:00 +16°C° 0 mm 1 m/s 709 mmHg 79%
09:00 +18°C° 0 mm 1 m/s 710 mmHg 69%
10:00 +19°C° 0 mm 2 m/s 710 mmHg 60%
11:00 +20°C° 0 mm 2 m/s 710 mmHg 57%
12:00 +21°C° 0 mm 2 m/s 710 mmHg 54%
13:00 +23°C° 0 mm 2 m/s 710 mmHg 50%
14:00 +21°C° 0 mm 2 m/s 710 mmHg 53%
15:00 +21°C° 0 mm 2 m/s 710 mmHg 55%
16:00 +21°C° 0 mm 2 m/s 710 mmHg 57%
17:00 +20°C° 0 mm 1 m/s 710 mmHg 64%
18:00 +19°C° 0 mm 1 m/s 710 mmHg 71%
19:00 +15°C° 0 mm 0 m/s 710 mmHg 78%
20:00 +15°C° 0 mm 0 m/s 710 mmHg 79%
21:00 +14°C° 0 mm 0 m/s 710 mmHg 80%
22:00 +14°C° 0 mm 0 m/s 710 mmHg 81%
23:00 +14°C° 0 mm 1 m/s 710 mmHg 82%

10 Agosto, Terça-feira

Tempo Temperatura Precipitação Vento Pressão Humidade
00:00 +14°C° 0 mm 1 m/s 710 mmHg 83%
01:00 +14°C° 0 mm 1 m/s 710 mmHg 84%
02:00 +13°C° 0 mm 1 m/s 710 mmHg 85%
03:00 +13°C° 0 mm 1 m/s 710 mmHg 86%
04:00 +12°C° 0 mm 1 m/s 710 mmHg 88%
05:00 +14°C° 0 mm 1 m/s 710 mmHg 82%
06:00 +15°C° 0 mm 1 m/s 710 mmHg 76%
07:00 +18°C° 0 mm 1 m/s 710 mmHg 70%
08:00 +19°C° 0.2 mm 1 m/s 710 mmHg 67%
09:00 +19°C° 0.2 mm 1 m/s 711 mmHg 64%
10:00 +19°C° 0.2 mm 2 m/s 711 mmHg 62%
11:00 +19°C° 0.4 mm 2 m/s 710 mmHg 63%
12:00 +19°C° 0.4 mm 2 m/s 710 mmHg 65%
13:00 +20°C° 0.4 mm 1 m/s 710 mmHg 66%
14:00 +20°C° 0.7 mm 1 m/s 710 mmHg 69%
15:00 +20°C° 0.7 mm 1 m/s 710 mmHg 71%
16:00 +19°C° 0.7 mm 1 m/s 710 mmHg 74%
17:00 +18°C° 0.3 mm 1 m/s 710 mmHg 77%
18:00 +16°C° 0.3 mm 1 m/s 709 mmHg 81%
19:00 +14°C° 0.3 mm 1 m/s 709 mmHg 85%
20:00 +14°C° 0 mm 1 m/s 709 mmHg 87%
21:00 +13°C° 0 mm 1 m/s 709 mmHg 88%
22:00 +12°C° 0 mm 1 m/s 709 mmHg 89%
23:00 +12°C° 0 mm 1 m/s 709 mmHg 89%
Mostrar mais